Time,TemperatureF,DewpointF,PressureIn,WindDirection,WindDirectionDegrees,WindSpeedMPH,WindSpeedGustMPH,Humidity,HourlyPrecipIn,Conditions,Clouds,dailyrainin,SolarRadiationWatts/m^2,SoftwareType,DateUTC
2013-04-04 00:02:00,45.0,42.0,-100.00,ESE,116,0.0,3.0,90,0.00,,,0.01,0.000000,,2013-04-04 07:02:00,
2013-04-04 00:12:00,45.0,42.0,-100.00,ESE,116,0.0,3.0,90,0.00,,,0.01,0.000000,,2013-04-04 07:12:00,
2013-04-04 00:21:00,45.0,42.0,-100.00,ESE,116,0.0,3.0,90,0.00,,,0.01,0.000000,,2013-04-04 07:21:00,
2013-04-04 00:52:00,45.0,41.0,-100.00,SSE,149,0.0,3.0,86,0.00,,,0.01,0.000000,,2013-04-04 07:52:00,
2013-04-04 01:02:00,45.0,41.0,-100.00,SSE,149,0.0,3.0,86,0.00,,,0.01,0.000000,,2013-04-04 08:02:00,
2013-04-04 01:12:00,45.0,41.0,-100.00,SSE,149,0.0,3.0,86,0.00,,,0.01,0.000000,,2013-04-04 08:12:00,
2013-04-04 01:22:00,45.0,41.0,-100.00,SSE,149,0.0,3.0,86,0.00,,,0.01,0.000000,,2013-04-04 08:22:00,
2013-04-04 01:52:00,46.0,40.0,-100.00,SSE,151,0.0,3.0,80,0.00,,,0.01,0.000000,,2013-04-04 08:52:00,
2013-04-04 02:02:00,46.0,40.0,-100.00,SSE,151,0.0,3.0,80,0.00,,,0.01,0.000000,,2013-04-04 09:02:00,
2013-04-04 02:12:00,46.0,40.0,-100.00,SSE,151,0.0,3.0,80,0.00,,,0.01,0.000000,,2013-04-04 09:12:00,
2013-04-04 02:22:00,46.0,40.0,-100.00,SSE,151,0.0,3.0,80,0.00,,,0.01,0.000000,,2013-04-04 09:22:00,
2013-04-04 02:53:00,46.0,37.0,-100.00,SE,130,1.0,3.0,70,0.00,,,0.00,0.000000,,2013-04-04 09:53:00,
2013-04-04 03:03:00,46.0,37.0,-100.00,SE,130,1.0,3.0,70,0.00,,,0.00,0.000000,,2013-04-04 10:03:00,
2013-04-04 03:12:00,46.0,37.0,-100.00,SE,130,1.0,3.0,70,0.00,,,0.00,0.000000,,2013-04-04 10:12:00,
2013-04-04 03:23:00,46.0,37.0,-100.00,SE,130,1.0,3.0,70,0.00,,,0.00,0.000000,,2013-04-04 10:23:00,
2013-04-04 03:53:00,46.0,34.0,-100.00,SE,134,0.0,3.0,62,0.00,,,0.00,0.000000,,2013-04-04 10:53:00,
2013-04-04 04:02:00,46.0,34.0,-100.00,SE,134,0.0,3.0,62,0.00,,,0.00,0.000000,,2013-04-04 11:02:00,
2013-04-04 04:12:00,46.0,34.0,-100.00,SE,134,0.0,3.0,62,0.00,,,0.00,0.000000,,2013-04-04 11:12:00,
2013-04-04 04:22:00,46.0,34.0,-100.00,SE,134,0.0,3.0,62,0.00,,,0.00,0.000000,,2013-04-04 11:22:00,
2013-04-04 04:53:00,46.0,34.0,-100.00,SSE,151,1.0,5.0,63,0.00,,,0.00,0.000000,,2013-04-04 11:53:00,
2013-04-04 05:02:00,46.0,34.0,-100.00,SSE,151,1.0,5.0,63,0.00,,,0.00,0.000000,,2013-04-04 12:02:00,
2013-04-04 05:12:00,46.0,34.0,-100.00,SSE,151,1.0,5.0,63,0.00,,,0.00,0.000000,,2013-04-04 12:12:00,
2013-04-04 05:22:00,46.0,34.0,-100.00,SSE,151,1.0,5.0,63,0.00,,,0.00,0.000000,,2013-04-04 12:22:00,
2013-04-04 05:52:00,45.0,34.0,-100.00,SE,142,1.0,4.0,66,0.00,,,0.00,0.000000,,2013-04-04 12:52:00,
2013-04-04 06:02:00,45.0,34.0,-100.00,SE,142,1.0,4.0,66,0.00,,,0.00,0.000000,,2013-04-04 13:02:00,
2013-04-04 06:12:00,45.0,34.0,-100.00,SE,142,1.0,4.0,66,0.00,,,0.00,0.000000,,2013-04-04 13:12:00,
2013-04-04 06:21:00,45.0,34.0,-100.00,SE,142,1.0,4.0,66,0.00,,,0.00,0.000000,,2013-04-04 13:21:00,
2013-04-04 06:52:00,47.0,31.0,-100.00,ESE,118,2.0,4.0,53,0.00,,,0.00,0.000000,,2013-04-04 13:52:00,
2013-04-04 07:02:00,47.0,31.0,-100.00,ESE,118,2.0,4.0,53,0.00,,,0.00,0.000000,,2013-04-04 14:02:00,
2013-04-04 07:12:00,47.0,31.0,-100.00,ESE,118,2.0,4.0,53,0.00,,,0.00,0.000000,,2013-04-04 14:12:00,
2013-04-04 07:22:00,47.0,31.0,-100.00,ESE,118,2.0,4.0,53,0.00,,,0.00,0.000000,,2013-04-04 14:22:00,
2013-04-04 07:52:00,47.0,33.0,-100.00,SSE,155,0.0,4.0,59,0.00,,,0.00,5.000000,,2013-04-04 14:52:00,
2013-04-04 08:02:00,47.0,33.0,-100.00,SSE,155,0.0,4.0,59,0.00,,,0.00,5.000000,,2013-04-04 15:02:00,
2013-04-04 08:12:00,47.0,33.0,-100.00,SSE,155,0.0,4.0,59,0.00,,,0.00,5.000000,,2013-04-04 15:12:00,
2013-04-04 08:22:00,47.0,33.0,-100.00,SSE,155,0.0,4.0,59,0.00,,,0.00,5.000000,,2013-04-04 15:22:00,
2013-04-04 08:53:00,47.0,35.0,-100.00,SSW,205,1.0,4.0,62,0.00,,,0.00,36.000000,,2013-04-04 15:53:00,
2013-04-04 09:03:00,47.0,35.0,-100.00,SSW,205,1.0,4.0,62,0.00,,,0.00,36.000000,,2013-04-04 16:03:00,
2013-04-04 09:12:00,47.0,35.0,-100.00,SSW,205,1.0,4.0,62,0.00,,,0.00,36.000000,,2013-04-04 16:12:00,
2013-04-04 09:23:00,47.0,35.0,-100.00,SSW,205,1.0,4.0,62,0.00,,,0.00,36.000000,,2013-04-04 16:23:00,
2013-04-04 09:53:00,49.0,40.0,-100.00,SW,235,0.0,2.0,72,0.01,,,0.01,88.000000,,2013-04-04 16:53:00,
2013-04-04 10:02:00,49.0,40.0,-100.00,SW,235,0.0,2.0,72,0.01,,,0.01,88.000000,,2013-04-04 17:02:00,
2013-04-04 10:13:00,49.0,40.0,-100.00,SW,235,0.0,2.0,72,0.01,,,0.01,88.000000,,2013-04-04 17:13:00,
2013-04-04 10:22:00,49.0,40.0,-100.00,SW,235,0.0,2.0,72,0.01,,,0.01,88.000000,,2013-04-04 17:22:00,
2013-04-04 10:52:00,48.0,44.0,-100.00,North,11,0.0,2.0,85,0.01,,,0.02,111.000000,,2013-04-04 17:52:00,
2013-04-04 11:02:00,48.0,44.0,-100.00,North,11,0.0,2.0,85,0.01,,,0.02,111.000000,,2013-04-04 18:02:00,
2013-04-04 11:12:00,48.0,44.0,-100.00,North,11,0.0,2.0,85,0.01,,,0.02,111.000000,,2013-04-04 18:12:00,
2013-04-04 11:22:00,48.0,44.0,-100.00,North,11,0.0,2.0,85,0.01,,,0.02,111.000000,,2013-04-04 18:22:00,
2013-04-04 11:52:00,48.0,45.0,-100.00,WNW,287,1.0,3.0,90,0.04,,,0.06,163.000000,,2013-04-04 18:52:00,
2013-04-04 12:02:00,48.0,45.0,-100.00,WNW,287,1.0,3.0,90,0.04,,,0.06,163.000000,,2013-04-04 19:02:00,
2013-04-04 12:12:00,48.0,45.0,-100.00,WNW,287,1.0,3.0,90,0.04,,,0.06,163.000000,,2013-04-04 19:12:00,
2013-04-04 12:22:00,48.0,45.0,-100.00,WNW,287,1.0,3.0,90,0.04,,,0.06,163.000000,,2013-04-04 19:22:00,
2013-04-04 12:52:00,49.0,46.0,-100.00,NE,41,0.0,3.0,89,0.03,,,0.09,143.000000,,2013-04-04 19:52:00,
2013-04-04 13:03:00,49.0,46.0,-100.00,NE,41,0.0,3.0,89,0.03,,,0.09,143.000000,,2013-04-04 20:03:00,
2013-04-04 13:12:00,49.0,46.0,-100.00,NE,41,0.0,3.0,89,0.03,,,0.09,143.000000,,2013-04-04 20:12:00,
2013-04-04 13:22:00,49.0,46.0,-100.00,NE,41,0.0,3.0,89,0.03,,,0.09,143.000000,,2013-04-04 20:22:00,
2013-04-04 13:53:00,48.0,46.0,-100.00,ENE,66,1.0,3.0,93,0.03,,,0.12,118.000000,,2013-04-04 20:53:00,
2013-04-04 14:02:00,48.0,46.0,-100.00,ENE,66,1.0,3.0,93,0.03,,,0.12,118.000000,,2013-04-04 21:02:00,
2013-04-04 14:12:00,48.0,46.0,-100.00,ENE,66,1.0,3.0,93,0.03,,,0.12,118.000000,,2013-04-04 21:12:00,
2013-04-04 14:22:00,48.0,46.0,-100.00,ENE,66,1.0,3.0,93,0.03,,,0.12,118.000000,,2013-04-04 21:22:00,
2013-04-04 14:53:00,48.0,46.0,-100.00,NE,52,0.0,3.0,94,0.04,,,0.16,107.000000,,2013-04-04 21:53:00,
2013-04-04 15:03:00,48.0,46.0,-100.00,NE,52,0.0,3.0,94,0.04,,,0.16,107.000000,,2013-04-04 22:03:00,
2013-04-04 15:12:00,48.0,46.0,-100.00,NE,52,0.0,3.0,94,0.04,,,0.16,107.000000,,2013-04-04 22:12:00,
2013-04-04 15:22:00,48.0,46.0,-100.00,NE,52,0.0,3.0,94,0.04,,,0.16,107.000000,,2013-04-04 22:22:00,
2013-04-04 15:53:00,49.0,47.0,-100.00,ESE,112,1.0,3.0,94,0.05,,,0.21,126.000000,,2013-04-04 22:53:00,
2013-04-04 16:02:00,49.0,47.0,-100.00,ESE,112,1.0,3.0,94,0.05,,,0.21,126.000000,,2013-04-04 23:02:00,
2013-04-04 16:12:00,49.0,47.0,-100.00,ESE,112,1.0,3.0,94,0.05,,,0.21,126.000000,,2013-04-04 23:12:00,
2013-04-04 16:22:00,49.0,47.0,-100.00,ESE,112,1.0,3.0,94,0.05,,,0.21,126.000000,,2013-04-04 23:22:00,
2013-04-04 16:52:00,49.0,47.0,-100.00,ENE,71,1.0,4.0,93,0.05,,,0.26,145.000000,,2013-04-04 23:52:00,
2013-04-04 17:02:00,49.0,47.0,-100.00,ENE,71,1.0,4.0,93,0.05,,,0.26,145.000000,,2013-04-05 00:02:00,
2013-04-04 17:12:00,49.0,47.0,-100.00,ENE,71,1.0,4.0,93,0.05,,,0.26,145.000000,,2013-04-05 00:12:00,
2013-04-04 17:22:00,49.0,47.0,-100.00,ENE,71,1.0,4.0,93,0.05,,,0.26,145.000000,,2013-04-05 00:22:00,
2013-04-04 17:52:00,48.0,46.0,-100.00,South,180,4.0,11.0,92,0.10,,,0.36,65.000000,,2013-04-05 00:52:00,
2013-04-04 18:02:00,48.0,46.0,-100.00,South,180,4.0,11.0,92,0.10,,,0.36,65.000000,,2013-04-05 01:02:00,
2013-04-04 18:12:00,48.0,46.0,-100.00,South,180,4.0,11.0,92,0.10,,,0.36,65.000000,,2013-04-05 01:12:00,
2013-04-04 18:22:00,48.0,46.0,-100.00,South,180,4.0,11.0,92,0.10,,,0.36,65.000000,,2013-04-05 01:22:00,
2013-04-04 18:53:00,46.0,43.0,-100.00,SSE,164,5.0,20.0,90,0.09,,,0.45,51.000000,,2013-04-05 01:53:00,
2013-04-04 19:02:00,46.0,43.0,-100.00,SSE,164,5.0,20.0,90,0.09,,,0.45,51.000000,,2013-04-05 02:02:00,
2013-04-04 19:12:00,46.0,43.0,-100.00,SSE,164,5.0,20.0,90,0.09,,,0.45,51.000000,,2013-04-05 02:12:00,
2013-04-04 19:22:00,46.0,43.0,-100.00,SSE,164,5.0,20.0,90,0.09,,,0.45,51.000000,,2013-04-05 02:22:00,
2013-04-04 19:52:00,45.0,43.0,-100.00,SSE,162,6.0,15.0,94,0.14,,,0.59,16.000000,,2013-04-05 02:52:00,
2013-04-04 20:02:00,45.0,43.0,-100.00,SSE,162,6.0,15.0,94,0.14,,,0.59,16.000000,,2013-04-05 03:02:00,
2013-04-04 20:12:00,45.0,43.0,-100.00,SSE,162,6.0,15.0,94,0.14,,,0.59,16.000000,,2013-04-05 03:12:00,
2013-04-04 20:22:00,45.0,43.0,-100.00,SSE,162,6.0,15.0,94,0.14,,,0.59,16.000000,,2013-04-05 03:22:00,
2013-04-04 20:53:00,44.0,42.0,-100.00,South,172,6.0,22.0,93,0.07,,,0.66,1.000000,,2013-04-05 03:53:00,
2013-04-04 21:02:00,44.0,42.0,-100.00,South,172,6.0,22.0,93,0.07,,,0.66,1.000000,,2013-04-05 04:02:00,
2013-04-04 21:12:00,44.0,42.0,-100.00,South,172,6.0,22.0,93,0.07,,,0.66,1.000000,,2013-04-05 04:12:00,
2013-04-04 21:22:00,44.0,42.0,-100.00,South,172,6.0,22.0,93,0.07,,,0.66,1.000000,,2013-04-05 04:22:00,
2013-04-04 21:52:00,44.0,42.0,-100.00,South,177,8.0,21.0,93,0.08,,,0.74,0.000000,,2013-04-05 04:52:00,
2013-04-04 22:02:00,44.0,42.0,-100.00,South,177,8.0,21.0,93,0.08,,,0.74,0.000000,,2013-04-05 05:02:00,
2013-04-04 22:12:00,44.0,42.0,-100.00,South,177,8.0,21.0,93,0.08,,,0.74,0.000000,,2013-04-05 05:12:00,
2013-04-04 22:22:00,44.0,42.0,-100.00,South,177,8.0,21.0,93,0.08,,,0.74,0.000000,,2013-04-05 05:22:00,
2013-04-04 22:52:00,44.0,42.0,-100.00,South,172,5.0,17.0,93,0.09,,,0.83,0.000000,,2013-04-05 05:52:00,
2013-04-04 23:02:00,44.0,42.0,-100.00,South,172,5.0,17.0,93,0.09,,,0.83,0.000000,,2013-04-05 06:02:00,
2013-04-04 23:12:00,44.0,42.0,-100.00,South,172,5.0,17.0,93,0.09,,,0.83,0.000000,,2013-04-05 06:12:00,
2013-04-04 23:22:00,44.0,42.0,-100.00,South,172,5.0,17.0,93,0.09,,,0.83,0.000000,,2013-04-05 06:22:00,
2013-04-04 23:52:00,43.0,42.0,-100.00,South,169,3.0,15.0,95,0.12,,,0.95,0.000000,,2013-04-05 06:52:00,